Regional Weather Roundup
Issued by NWS Jackson, KY

Home | Current Version | Previous Version | Text Only | Print | Product List | Glossary On
Versions: 1 2 3 4 5 6 7 8 9 10 11 12 13 14 15 16 17 18 19 20 21 22 23 24 25 26 27
000
ASUS43 KJKL 051210
RWRJKL

EAST KENTUCKY HOURLY WEATHER ROUNDUP
NATIONAL WEATHER SERVICE JACKSON KY
700 AM EST MON DEC 05 2016

NOTE: "FAIR" INDICATES FEW OR NO CLOUDS BELOW 12,000 FEET WITH
NO SIGNIFICANT WEATHER AND/OR OBSTRUCTIONS TO VISIBILITY.

* THESE REPORTS ARE NOT UNDER NWS QUALITY CONTROL AND MAY NOT
  REPORT WEATHER SUCH AS PRECIPITATION AND FOG.

KYZ079-080-083-085-087-088-110-112-115-119-120-051300
...EASTERN KENTUCKY...

CITY           SKY/WX    TMP DP  RH WIND       PRES   REMARKS
JACKSON        CLOUDY    43  40  89 VRB3      30.06R
6HR MIN TEMP:  43; 6HR MAX TEMP:  46;

LONDON         CLOUDY    43  40  89 N3        30.06R
6HR MIN TEMP:  43; 6HR MAX TEMP:  47;

SOMERSET*      CLOUDY    41  41 100 N3        30.08S
MONTICELLO*    CLOUDY    43  41  93 NE10      30.08R
6HR MIN TEMP:  43; 6HR MAX TEMP:  47;

WILLIAMSBURG*  CLOUDY    43  43 100 CALM      30.06R
MIDDLESBORO*   CLOUDY    46  45  99 NE5       30.05R
6HR MIN TEMP:  46; 6HR MAX TEMP:  46;

HARLAN APT*    CLOUDY    45  41  87 CALM      30.05R
PIKE CO APT*   CLOUDY    44  44 100 N5        30.06R
MOREHEAD APT*  CLOUDY    41  37  87 N8        30.09R
ASHLAND*       CLOUDY    45  39  81 NW3       30.06R
$$

KYZ035-036-041-042-044-050-067-078-099-051300
...CENTRAL KENTUCKY...

CITY           SKY/WX    TMP DP  RH WIND       PRES   REMARKS
MT STERLING*   CLOUDY    41  36  81 CALM      30.09R
FLEMING/MASON* CLOUDY    38  35  88 NW3       30.10R
DANVILLE*      CLOUDY    37  36  93 N6        30.08S WCI  33
LEXINGTON      CLOUDY    40  36  86 N8        30.08R WCI  34
6HR MIN TEMP:  39; 6HR MAX TEMP:  44; 6HR PCP: TRACE;

FRANKFORT      CLOUDY    39  34  82 NW5       30.08R
6HR MIN TEMP:  39; 6HR MAX TEMP:  44;

LOUISVILLE     CLOUDY    40  32  73 N3        30.09S
6HR MIN TEMP:  40; 6HR MAX TEMP:  42;

LEBANON*       CLOUDY    39  34  81 NW6       30.08S WCI  35
GLASGOW*       CLOUDY    38  38 100 N3        30.07F
BOWLING GREEN  CLOUDY    40  35  83 N5        30.07F
6HR MIN TEMP:  40; 6HR MAX TEMP:  45;

$$

KYZ091>093-OHZ055-061-077-WVZ005-015-034-035-042-051300
...SOUTHERN OHIO/WEST VIRGINIA...

CITY           SKY/WX    TMP DP  RH WIND       PRES   REMARKS
COVINGTON      CLOUDY    37  33  85 NW5       30.08R WCI  33
COLUMBUS       CLOUDY    35  32  88 W6        30.07R WCI  30
DAYTON         CLOUDY    34  31  88 W9        30.08R WCI  27
WILMINGTON     CLOUDY    36  31  82 W9        30.07R WCI  29
HUNTINGTON     CLOUDY    45  38  76 NW6       30.07R
CHARLESTON     CLOUDY    46  39  76 NW5       30.05R
PINEVILLE*     CLOUDY    45  42  90 MISG      30.08R FOG
BECKLEY        CLOUDY    42  38  85 W12       30.01R
BLUEFIELD      CLOUDY    42  39  89 NW8       30.01R
LOGAN CO APT*  CLOUDY    45  41  87 N8        30.04R
$$

VAZ002-007-008-TNZ017-027-036-066-071-051300
...SOUTHWEST VIRGINIA/EAST TENNESSEE...

CITY           SKY/WX    TMP DP  RH WIND       PRES   REMARKS
WISE*          CLOUDY    43  43 100 N6        30.04R
JONESVILLE*    CLOUDY    45  45 100 CALM      30.06R FOG
ABINGDON*      CLOUDY    46  46 100 CALM      30.03R FOG
BRISTOL        CLOUDY    45  45 100 CALM      30.03R FOG
MORRISTOWN*    CLOUDY    45  45 100 CALM      30.02S FOG
SEVIERVILLE*   CLOUDY    45  45 100 CALM      30.03S
KNOXVILLE      CLOUDY    46  45  96 CALM      30.02S FOG
OAK RIDGE      CLOUDY    48  45  89 CALM      30.04S FOG
CROSSVILLE     CLOUDY    43  42  97 N7        30.02R
NASHVILLE      CLOUDY    44  39  82 N10       30.05F
$$

...KEY TO REMARKS...
VSB - VISIBILITY IN MILES
WCI - WIND CHILL INDEX
HX  - HEAT INDEX

$$




USA.gov is the U.S. government's official web portal to all federal, state and local government web resources and services.